Aérodrome :
LOGIN :

S'inscrire | Disclaimer

   EN    FR    IT 

 










Légende :    VFR   VFR Marginal   IFR   IFR Intensif   IFR Très Intensif
Visi : 
Plafond : 
>= 8 km
>= 3000ft
5 à 8 km
1000 à 3000 ft
1500m à 5 km
500 à 1000 ft
800 à 1500m
200 à 500 ft
< 800m
< 200 ft
Symboles :   Orages  Brouillard  Fortes neiges  Fortes précipitations  Vent > 20 kt
SIGMETs :   Divers  Orages  Givrage  Turbulence  Onde Orograph.  Cendres Volcan.







- Altitude de l'aérodrome : 909 ft
- Code IATA : KSF


EDVK - Kassel Calden

DERNIER METAR :
  • 221820Z VRB02KT 9999 BKN037 OVC045 14/13 Q1021

METARs EXPIRÉS :
  • 221750Z 18002KT 9999 BKN041 15/13 Q1021
  • 221720Z VRB01KT 9999 BKN038 BKN160 15/11 Q1021
  • 221650Z 05002KT CAVOK 16/11 Q1021
  • 221620Z VRB02KT CAVOK 17/11 Q1020
  • 221550Z VRB02KT 9999 FEW035 SCT044 17/10 Q1020

TAF TAF EDVK
Valide du 22 à 18h jusqu'au 23 à 01h UTC


221700Z 2218/2301 VRB03KT CAVOK
Pas de NOTAMs connus pour ce terrain.



MET'MAP, la Météo Aéronautique d'un coup d'oeil ! - Copyright ORBIFLY Décembre 2007 - Disclaimer

ORBIFLY MET'MAP TEAM :

Programmation & Développement : Alexandra Zaïnal
Conception & Développement : Baudouin d'Aumeries
Co-Programmation & Développement : Marc-Olivier Méhu
Soutien technique & logistique : Manuel Goepfert

Contact : metmap@orbifly.com




SOURCES & CREDITS :

   NOAA